Hourly Weather Barkweda

Today, 23 September, Wednesday

Time Temperature Precipitation Wind Pressure Humidity
00:00 +17°C° 0 mm 4 mps 750 mmHg 67%
01:00 +17°C° 0 mm 4 mps 750 mmHg 67%
02:00 +15°C° 0 mm 4 mps 750 mmHg 67%
03:00 +15°C° 0 mm 4 mps 750 mmHg 67%
04:00 +16°C° 0 mm 3 mps 749 mmHg 67%
05:00 +15°C° 0 mm 4 mps 749 mmHg 66%
06:00 +15°C° 0 mm 4 mps 749 mmHg 65%
07:00 +17°C° 0 mm 4 mps 749 mmHg 64%
08:00 +19°C° 0 mm 4 mps 749 mmHg 58%
09:00 +21°C° 0 mm 4 mps 749 mmHg 53%
10:00 +23°C° 0 mm 4 mps 749 mmHg 48%
11:00 +25°C° 0 mm 4 mps 749 mmHg 45%
12:00 +26°C° 0 mm 4 mps 748 mmHg 43%
13:00 +27°C° 0 mm 4 mps 748 mmHg 40%
14:00 +27°C° 0 mm 3 mps 748 mmHg 43%
15:00 +26°C° 0 mm 3 mps 748 mmHg 46%
16:00 +26°C° 0 mm 2 mps 747 mmHg 49%
17:00 +24°C° 0 mm 3 mps 747 mmHg 54%
18:00 +21°C° 0 mm 3 mps 747 mmHg 59%
19:00 +19°C° 0 mm 3 mps 747 mmHg 63%
20:00 +19°C° 0 mm 3 mps 747 mmHg 64%
21:00 +18°C° 0 mm 3 mps 747 mmHg 65%
22:00 +18°C° 0 mm 3 mps 747 mmHg 65%
23:00 +17°C° 0 mm 3 mps 747 mmHg 67%

Tomorrow, 24 September, Thursday

Time Temperature Precipitation Wind Pressure Humidity
00:00 +17°C° 0 mm 3 mps 747 mmHg 68%
01:00 +17°C° 0 mm 2 mps 747 mmHg 69%
02:00 +17°C° 0 mm 3 mps 747 mmHg 70%
03:00 +17°C° 0 mm 3 mps 747 mmHg 72%
04:00 +17°C° 0 mm 3 mps 746 mmHg 73%
05:00 +17°C° 0.1 mm 3 mps 747 mmHg 74%
06:00 +18°C° 0.1 mm 3 mps 747 mmHg 74%
07:00 +18°C° 0.1 mm 3 mps 747 mmHg 75%
08:00 +20°C° 0 mm 4 mps 747 mmHg 69%
09:00 +21°C° 0 mm 4 mps 747 mmHg 63%
10:00 +23°C° 0 mm 4 mps 747 mmHg 57%
11:00 +25°C° 0 mm 4 mps 747 mmHg 56%
12:00 +25°C° 0 mm 4 mps 747 mmHg 54%
13:00 +26°C° 0 mm 4 mps 747 mmHg 53%
14:00 +25°C° 0.3 mm 3 mps 747 mmHg 56%
15:00 +25°C° 0.3 mm 3 mps 747 mmHg 58%
16:00 +24°C° 0.3 mm 2 mps 747 mmHg 60%
17:00 +23°C° 0 mm 2 mps 747 mmHg 63%
18:00 +20°C° 0 mm 2 mps 747 mmHg 65%
19:00 +19°C° 0 mm 2 mps 747 mmHg 67%
20:00 +18°C° 0 mm 2 mps 747 mmHg 69%
21:00 +18°C° 0 mm 2 mps 747 mmHg 71%
22:00 +17°C° 0 mm 2 mps 747 mmHg 73%
23:00 +17°C° 0 mm 2 mps 747 mmHg 74%

Day after tomorrow, 25 September, Friday

Time Temperature Precipitation Wind Pressure Humidity
00:00 +17°C° 0 mm 2 mps 747 mmHg 76%
01:00 +16°C° 0 mm 2 mps 747 mmHg 77%
02:00 +16°C° 0 mm 2 mps 747 mmHg 78%
03:00 +15°C° 0 mm 2 mps 746 mmHg 79%
04:00 +15°C° 0 mm 2 mps 746 mmHg 80%
05:00 +15°C° 0 mm 2 mps 745 mmHg 79%
06:00 +16°C° 0 mm 2 mps 745 mmHg 78%
07:00 +16°C° 0 mm 3 mps 745 mmHg 77%
08:00 +18°C° 0 mm 3 mps 744 mmHg 74%
09:00 +20°C° 0 mm 4 mps 744 mmHg 71%
10:00 +22°C° 0 mm 5 mps 743 mmHg 67%
11:00 +23°C° 0 mm 5 mps 743 mmHg 63%
12:00 +23°C° 0 mm 6 mps 742 mmHg 60%
13:00 +24°C° 0 mm 7 mps 741 mmHg 56%
14:00 +24°C° 0.1 mm 7 mps 741 mmHg 58%
15:00 +23°C° 0.1 mm 6 mps 741 mmHg 60%
16:00 +23°C° 0.1 mm 6 mps 740 mmHg 63%
17:00 +21°C° 0.5 mm 5 mps 740 mmHg 69%
18:00 +20°C° 0.5 mm 4 mps 740 mmHg 75%
19:00 +19°C° 0.5 mm 4 mps 740 mmHg 82%
20:00 +18°C° 0 mm 4 mps 740 mmHg 83%
21:00 +18°C° 0 mm 4 mps 740 mmHg 84%
22:00 +17°C° 0 mm 4 mps 741 mmHg 85%
23:00 +17°C° 0.1 mm 3 mps 741 mmHg 87%

26 September, Saturday

Time Temperature Precipitation Wind Pressure Humidity
00:00 +16°C° 0.1 mm 2 mps 741 mmHg 90%
01:00 +16°C° 0.1 mm 2 mps 741 mmHg 92%
02:00 +15°C° 0 mm 1 mps 741 mmHg 92%
03:00 +15°C° 0 mm 1 mps 741 mmHg 92%
04:00 +15°C° 0 mm 1 mps 741 mmHg 93%
05:00 +15°C° 0 mm 2 mps 740 mmHg 92%
06:00 +16°C° 0 mm 3 mps 740 mmHg 92%
07:00 +16°C° 0 mm 3 mps 740 mmHg 92%
08:00 +17°C° 0 mm 4 mps 740 mmHg 87%
09:00 +18°C° 0 mm 4 mps 740 mmHg 83%
10:00 +20°C° 0 mm 5 mps 739 mmHg 78%
11:00 +20°C° 0 mm 5 mps 739 mmHg 75%
12:00 +21°C° 0 mm 5 mps 739 mmHg 72%
13:00 +21°C° 0 mm 5 mps 739 mmHg 69%
14:00 +22°C° 0 mm 5 mps 739 mmHg 69%
15:00 +22°C° 0 mm 4 mps 739 mmHg 69%
16:00 +22°C° 0 mm 4 mps 739 mmHg 69%
17:00 +22°C° 0.3 mm 4 mps 739 mmHg 72%
18:00 +21°C° 0.3 mm 4 mps 739 mmHg 75%
19:00 +20°C° 0.3 mm 4 mps 739 mmHg 78%
20:00 +20°C° 0 mm 4 mps 739 mmHg 74%
21:00 +20°C° 0 mm 5 mps 739 mmHg 71%
22:00 +20°C° 0 mm 6 mps 739 mmHg 67%
23:00 +20°C° 0 mm 6 mps 739 mmHg 65%

27 September, Sunday

Time Temperature Precipitation Wind Pressure Humidity
00:00 +19°C° 0 mm 6 mps 739 mmHg 62%
01:00 +19°C° 0 mm 6 mps 739 mmHg 60%
02:00 +19°C° 0 mm 6 mps 739 mmHg 60%
03:00 +19°C° 0 mm 6 mps 738 mmHg 60%
04:00 +17°C° 0 mm 7 mps 738 mmHg 60%
05:00 +17°C° 0 mm 7 mps 738 mmHg 59%
06:00 +17°C° 0 mm 7 mps 739 mmHg 59%
07:00 +18°C° 0 mm 7 mps 739 mmHg 58%
08:00 +18°C° 0 mm 7 mps 739 mmHg 58%
09:00 +20°C° 0 mm 7 mps 739 mmHg 57%
10:00 +20°C° 0 mm 8 mps 739 mmHg 57%
11:00 +21°C° 0 mm 8 mps 740 mmHg 56%
12:00 +21°C° 0 mm 8 mps 740 mmHg 55%
13:00 +22°C° 0 mm 8 mps 740 mmHg 54%
14:00 +21°C° 0 mm 7 mps 740 mmHg 58%
15:00 +20°C° 0 mm 7 mps 741 mmHg 63%
16:00 +19°C° 0 mm 6 mps 741 mmHg 67%
17:00 +19°C° 0.1 mm 6 mps 741 mmHg 71%
18:00 +17°C° 0.1 mm 6 mps 742 mmHg 74%
19:00 +17°C° 0.1 mm 6 mps 742 mmHg 77%
20:00 +16°C° 0 mm 5 mps 742 mmHg 78%
21:00 +16°C° 0 mm 5 mps 743 mmHg 78%
22:00 +15°C° 0 mm 5 mps 743 mmHg 79%
23:00 +15°C° 0.1 mm 5 mps 743 mmHg 79%

28 September, Monday

Time Temperature Precipitation Wind Pressure Humidity
00:00 +15°C° 0.1 mm 4 mps 743 mmHg 80%
01:00 +15°C° 0.1 mm 4 mps 744 mmHg 80%
02:00 +14°C° 0.1 mm 4 mps 744 mmHg 82%
03:00 +14°C° 0.1 mm 4 mps 744 mmHg 83%
04:00 +14°C° 0.1 mm 3 mps 744 mmHg 85%
05:00 +13°C° 0.1 mm 3 mps 744 mmHg 86%
06:00 +13°C° 0.1 mm 3 mps 745 mmHg 87%
07:00 +12°C° 0.1 mm 3 mps 745 mmHg 88%
08:00 +12°C° 0.1 mm 3 mps 745 mmHg 87%
09:00 +12°C° 0.1 mm 3 mps 746 mmHg 86%
10:00 +12°C° 0.1 mm 4 mps 746 mmHg 84%
11:00 +12°C° 0.1 mm 4 mps 746 mmHg 82%
12:00 +12°C° 0.1 mm 3 mps 747 mmHg 79%
13:00 +13°C° 0.1 mm 3 mps 747 mmHg 76%
14:00 +13°C° 0 mm 3 mps 747 mmHg 73%
15:00 +15°C° 0 mm 2 mps 747 mmHg 70%
16:00 +15°C° 0 mm 2 mps 748 mmHg 67%
17:00 +14°C° 0 mm 2 mps 748 mmHg 70%
18:00 +13°C° 0 mm 2 mps 749 mmHg 72%
19:00 +12°C° 0 mm 2 mps 749 mmHg 75%
20:00 +12°C° 0 mm 2 mps 749 mmHg 76%
21:00 +10°C° 0 mm 2 mps 750 mmHg 78%
22:00 +9°C° 0 mm 2 mps 750 mmHg 79%
23:00 +10°C° 0 mm 1 mps 750 mmHg 81%
Show more